Regional Weather Roundup
Issued by NWS

Home | Current Version | Previous Version | Graphics & Text | Print | Product List | Glossary Off
Versions: 1 2 3 4 5 6 7 8 9 10 11 12 13 14 15 16 17 18 19 20 21 22 23 24 25 26 27 28 29 30 31 32 33 34 35 36 37 38 39 40 41 42 43 44 45 46 47 48 49 50

503
ASUS43 KDTX 220810
RWRMI
MICHIGAN HOURLY REGIONAL WEATHER ROUNDUP
NATIONAL WEATHER SERVICE DETROIT/PONTIAC MI
400 AM EDT FRI MAY 22 2015

NOTE: "FAIR" INDICATES FEW OR NO CLOUDS BELOW 12,000 FEET WITH NO
SIGNIFICANT WEATHER AND/OR OBSTRUCTION TO VISIBILITY.

MIZ047>049-052>055-059>063-066>070-074>076-081>083-220900-
SOUTHEAST LOWER MICHIGAN

CITY           SKY/WX    TMP DP  RH WIND       PRES   REMARKS
ADRIAN         CLOUDY    51  38  60 NW5       30.04R
ALMA           CLOUDY    42  31  65 N3        30.06R
ANN ARBOR      LGT RAIN  52  43  71 NW7       30.01R
BAD AXE        CLEAR     42  29  60 NW5       30.01R
CARO           CLEAR     45  31  59 N5        30.02S
DETROIT CITY   MOCLDY    55  37  50 NW3       30.00R
DETROIT        LGT RAIN  54  43  66 W3        30.00F
FLINT          PTCLDY    50  28  42 N10       30.05R
GROSSE ILE     RAIN      55  39  54 W3        29.99S
HILLSDALE      LGT RAIN  56  39  52 W17G23    30.05R
HOWELL         MOCLDY    50  30  45 NW9       30.03R

CITY           SKY/WX    TMP DP  RH WIND       PRES   REMARKS
JACKSON        CLOUDY    51  41  68 NW7       30.05R
LAMBERTVILLE   CLOUDY    54  36  50 SW6       30.02R
LANSING        MOCLDY    49  27  42 N5        30.06R
LAPEER         FAIR      48  32  54 N6        30.02R
MASON          MOCLDY    47  34  61 N3        30.05R
MONROE         MOCLDY    54  37  54 W6        30.00R
MT. CLEMENS    MOCLDY    49  42  76 E9        29.98R
PONTIAC        MOCLDY    52  37  56 NW10      30.01R
PORT HOPE        N/A     48  32  53 NW15G24   29.99R
PORT HURON     PTCLDY    43  37  81 CALM      30.01R
TRI CITIES     CLEAR     46  28  49 NW6       30.05R
MIDLAND        FAIR      39  33  80 CALM      30.04R
TROY           MOCLDY    56  38  49 NW7       30.02R
SAGINAW HB     PTCLDY    45  28  53 NW5       30.03S
$$
MIZ043>046-050>051-056>058-064>065-071>073-077>080-220900-
SOUTHWEST LOWER MICHIGAN

CITY           SKY/WX    TMP DP  RH WIND       PRES   REMARKS
BATTLE CREEK   CLOUDY    54  40  59 N7        30.08R
BENTON HARBOR  CLOUDY    50  49  96 CALM      30.05R
BIG RAPIDS     CLEAR     41  26  56 CALM      30.06R
COLDWATER      LGT RAIN  51  46  80 W9        30.06R
FREMONT        FAIR      44  24  46 CALM      30.07R
HOLLAND        PTCLDY    51  30  44 NE3       30.08R
GRAND RAPIDS   CLOUDY    49  30  48 NE6       30.07R
IONIA          MOCLDY    50  27  40 N3        30.05R
KALAMAZOO      MOCLDY    52  46  80 NW7       30.07R
LUDINGTON      CLEAR     38  31  74 NE3       30.08R
MARSHALL       CLOUDY    52  40  62 CALM      30.06R
MOUNT PLEASANT CLEAR     43  26  51 CALM      30.05R
MUSKEGON       CLOUDY    50  30  46 CALM      30.08R
SOUTH HAVEN    LGT RAIN  47  44  90 CALM      30.05S
$$
MIZ016>042-220900-
NORTHERN LOWER MICHIGAN

CITY           SKY/WX    TMP DP  RH WIND       PRES   REMARKS
ALPENA         CLEAR     40  28  62 NW6       30.04R
BEAVER ISLAND  CLEAR     35  29  79 CALM      30.08R
BELLAIRE       CLEAR     30  29  94 CALM      30.08R
CADILLAC       CLEAR     31  25  78 CALM      30.06R
CHARLEVOIX     CLEAR     40  33  77 N5        30.10R
FRANKFORT      CLEAR     33  27  78 CALM      30.09R
GAYLORD        CLEAR     36  28  73 CALM      30.05R
GRAYLING       CLEAR     28  25  86 CALM      30.06R
HARBOR SPRINGS CLEAR     37  29  74 N3        30.07R
HOUGHTON LAKE  CLEAR     38  23  55 NW7       30.05R WCI  33
MANISTEE       CLEAR     32  27  80 CALM      30.09R
OSCODA         CLEAR     42  26  52 NW9       30.01R
PELLSTON       CLEAR     30  25  81 CALM      30.07R
ROGERS CITY    CLEAR     40  32  73 NW3       30.07R
TRAVERSE CITY  CLEAR     33  28  81 CALM      30.07R
$$
MIZ007>008-015-220900-
EASTERN UPPER MICHIGAN

CITY           SKY/WX    TMP DP  RH WIND       PRES   REMARKS
KINROSS        CLEAR     36  28  75 N5        30.06R WCI  32
MACKINAC ISLAN CLEAR     37  30  75 N5        30.05S WCI  34
NEWBERRY       CLEAR     36  28  74 NW6       30.08R WCI  31
S. S. MARIE    FAIR      38  21  50 N5        30.06R WCI  34
MUNISING         N/A     31  25  78 S6        30.11R WCI  25
$$
MIZ004>006-011>014-085-220900-
CENTRAL UPPER MICHIGAN

CITY           SKY/WX    TMP DP  RH WIND       PRES   REMARKS
MANISTIQUE     CLEAR     31  24  76 N7        30.08R WCI  25
ESCANABA       CLEAR     37  19  48 NW6       30.10R WCI  33
MENOMINEE      CLEAR     36  28  75 CALM      30.11R
SAWYER-GWINN   CLEAR     36  20  53 CALM      30.10R
$$
MIZ001>003-009>011-084-220900-
WESTERN UPPER MICHIGAN

CITY           SKY/WX    TMP DP  RH WIND       PRES   REMARKS
IRON MOUNTAIN  CLEAR     31  24  75 CALM      30.10R
HOUGHTON       CLEAR     40  21  46 E3        30.11R
COPPER HARBOR    N/A     37  29  72 CALM      30.13R
IRONWOOD       CLEAR     36  34  93 CALM      30.10R
$$

ABBREVIATIONS USED IN REMARKS
   TC - TEMPERATURE IN CELSIUS
  WCI - WIND CHILL INDEX
   HX - HEAT INDEX
  VSB - VISIBILITY




USA.gov is the U.S. government's official web portal to all federal, state and local government web resources and services.